CAPE
0 0 0 0 0 0 0 0 0 0 0 0 0 0 0 0 0 0 0 13 13 0 3 16 22 78 66 45 34 22 20 14 18 20 19 18 20 17 10 67 67 140 312
0 0 0 0 0 0 0 0 0 0 0 0 0 0 0 0 0 0 0 0 0 0 0 0 20 76 60 41 30 17 11 11 10 16 15 11 11 16 15 20 103 59 51
0 0 0 0 0 0 0 0 0 0 0 0 0 0 0 0 0 0 0 0 0 0 0 10 20 10 23 34 23 19 11 6 14 10 12 9 7 9 14 21 19 25 95
0 0 0 0 0 0 0 0 0 0 0 0 0 0 0 0 0 0 0 0 0 0 0 0 13 2 0 7 19 16 8 10 10 11 12 7 4 3 4 13 21 14 11
0 0 0 0 0 0 0 0 0 0 0 0 0 0 0 0 0 0 0 0 0 0 0 0 0 0 0 1 2 3 5 9 13 15 11 8 4 3 1 4 16 14 16
0 0 0 0 0 0 0 0 0 0 0 0 0 0 0 0 0 0 0 0 0 0 0 0 0 0 0 0 0 0 2 7 10 13 12 9 6 4 1 3 5 9 13
0 0 0 0 0 0 0 0 0 0 0 0 0 0 0 0 0 0 0 0 0 0 0 0 0 0 0 0 0 0 0 1 4 12 13 10 6 6 4 4 4 4 6
0 0 0 0 0 0 0 0 0 0 0 0 0 0 0 0 0 0 0 0 0 0 0 0 0 0 0 0 0 0 0 0 1 8 12 11 9 7 5 6 6 5 5
0 0 0 0 0 0 0 0 0 0 0 0 0 0 0 0 0 0 0 0 0 0 0 0 0 0 0 0 0 0 0 0 1 6 11 10 12 11 11 10 8 7 4
0 0 0 0 0 0 0 0 0 0 0 0 0 0 0 0 0 0 0 0 0 0 0 0 0 0 0 0 0 0 0 0 0 1 6 9 11 14 11 11 9 8 8
0 0 0 0 0 0 0 0 0 0 0 0 0 0 0 0 0 0 0 0 0 0 0 0 0 0 0 0 0 0 0 0 0 2 5 6 9 10 9 12 10 12 8
0 0 0 0 0 0 0 0 0 0 0 0 0 0 0 0 0 0 0 0 0 0 0 0 0 0 0 0 0 0 0 0 0 2 2 4 7 9 11 12 14 11 10
0 0 0 0 0 0 0 0 0 0 0 0 0 0 0 0 0 0 0 0 0 0 0 0 0 0 0 0 0 0 0 0 0 0 2 4 2 6 11 13 10 11 10
0 0 0 0 0 0 0 0 0 0 0 0 0 0 0 0 0 0 0 0 0 0 0 0 0 0 0 0 0 0 0 0 0 0 1 0 0 2 2 0 4 5 5
0 0 0 0 0 0 0 0 0 0 0 0 0 0 0 0 0 0 0 0 0 0 0 0 0 0 0 0 0 0 0 0 0 0 2 0 0 0 0 1 1 2 2
0 0 0 0 0 0 0 0 0 0 0 0 0 0 0 0 0 0 0 0 0 0 0 0 0 0 0 0 0 0 0 0 0 0 0 0 0 0 0 0 0 0 0
0 0 0 0 0 0 0 0 0 0 0 0 0 0 0 0 0 0 0 0 0 0 0 0 0 0 0 0 0 0 0 0 0 0 0 0 0 0 0 0 0 0 0
0 0 0 0 0 0 0 0 0 0 0 0 0 0 0 0 0 0 0 0 0 0 0 0 0 0 0 0 0 0 0 0 0 0 0 0 0 0 0 0 0 0 0
0 0 0 0 0 0 0 0 0 0 0 0 0 0 0 0 0 0 0 0 0 0 0 0 0 0 0 0 0 0 0 0 0 0 0 0 0 0 0 1 0 0 0
0 0 0 0 0 0 0 0 0 0 0 0 0 0 0 0 0 0 0 0 0 0 0 0 0 0 0 0 0 0 0 0 0 0 0 0 0 0 0 0 0 0 0
0 0 0 0 0 0 0 0 0 0 0 0 0 0 0 0 0 0 0 0 0 0 0 0 0 0 0 0 0 0 0 0 0 0 0 0 0 0 0 0 0 0 0
0 0 0 0 0 0 0 0 0 0 0 0 0 0 0 0 0 0 0 0 0 0 0 0 0 0 0 0 0 0 0 0 0 0 0 0 0 0 0 0 0 0 0
0 0 0 0 0 0 0 0 0 0 0 0 0 0 0 0 0 0 0 0 0 0 0 0 0 0 0 0 0 0 0 1 1 0 0 3 0 0 0 0 0 2 0
0 0 0 0 0 0 0 0 0 0 0 0 0 0 0 0 0 0 0 0 0 0 0 0 0 0 0 0 0 0 0 0 0 0 0 3 0 0 0 0 0 0 0
0 0 0 0 0 0 0 0 0 0 0 0 0 0 0 0 0 0 0 0 0 0 0 0 0 1 6 7 2 0 0 0 0 0 0 0 0 0 0 0 0 0 0
0 0 0 0 0 0 0 0 0 0 0 0 0 0 0 0 0 0 0 0 0 0 0 0 0 0 0 0 0 0 0 0 0 0 0 0 0 2 1 0 0 0 0
CIN
-0 -0 -0 -0 -0 -0 -0 -0 -0 -0 -0 -0 -0 -0 -0 -0 -0 -0 -0 -1 -1 -0 -0 -0 -0 -0 -0 -0 -0 -0 -0 -0 -0 -0 -0 -0 -0 -0 -0 -15 -38 -45 -16
-0 -0 -0 -0 -0 -0 -0 -0 -0 -0 -0 -0 -0 -0 -0 -0 -0 -0 -0 -0 -0 -0 -0 -0 -0 -0 -0 -0 -0 -0 -0 -0 -0 -0 -0 -0 -0 -0 -0 -4 -0 -14 -50
-0 -0 -0 -0 -0 -0 -0 -0 -0 -0 -0 -0 -0 -0 -0 -0 -0 -0 -0 -0 -0 -0 -0 -0 -0 -0 -0 -0 -0 -0 -0 -0 -0 -0 -0 -0 -0 -0 -0 -0 -0 -15 -0
-0 -0 -0 -0 -0 -0 -0 -0 -0 -0 -0 -0 -0 -0 -0 -0 -0 -0 -0 -0 -0 -0 -0 -0 -0 -0 -0 -0 -0 -0 -0 -0 -0 -0 -0 -0 -0 -0 -0 -0 -0 -0 -0
-0 -0 -0 -0 -0 -0 -0 -0 -0 -0 -0 -0 -0 -0 -0 -0 -0 -0 -0 -0 -0 -0 -0 -0 -0 -0 -0 -0 -0 -0 -0 -0 -0 -0 -0 -0 -0 -0 -0 -0 -0 -0 -0
-0 -0 -0 -0 -0 -0 -0 -0 -0 -0 -0 -0 -0 -0 -0 -0 -0 -0 -0 -0 -0 -0 -0 -0 -0 -0 -0 -0 -0 -0 -0 -0 -0 -0 -0 -0 -0 -0 -0 -0 -0 -0 -0
-0 -0 -0 -0 -0 -0 -0 -0 -0 -0 -0 -0 -0 -0 -0 -0 -0 -0 -0 -0 -0 -0 -0 -0 -0 -0 -0 -0 -0 -0 -0 -0 -0 -0 -0 -0 -0 -0 -0 -0 -0 -0 -0
-0 -0 -0 -0 -0 -0 -0 -0 -0 -0 -0 -0 -0 -0 -0 -0 -0 -0 -0 -0 -0 -0 -0 -0 -0 -0 -0 -0 -0 -0 -0 -0 -0 -0 -0 -0 -0 -0 -0 -0 -0 -0 -0
-0 -0 -0 -0 -0 -0 -0 -0 -0 -0 -0 -0 -0 -0 -0 -0 -0 -0 -0 -0 -0 -0 -0 -0 -0 -0 -0 -0 -0 -0 -0 -0 -0 -0 -0 -0 -0 -0 -0 -0 -0 -0 -0
-0 -0 -0 -0 -0 -0 -0 -0 -0 -0 -0 -0 -0 -0 -0 -0 -0 -0 -0 -0 -0 -0 -0 -0 -0 -0 -0 -0 -0 -0 -0 -0 -0 -0 -0 -0 -0 -0 -0 -0 -0 -0 -0
-0 -0 -0 -0 -0 -0 -0 -0 -0 -0 -0 -0 -0 -0 -0 -0 -0 -0 -0 -0 -0 -0 -0 -0 -0 -0 -0 -0 -0 -0 -0 -0 -0 -0 -0 -0 -0 -0 -0 -0 -0 -0 -0
-0 -0 -0 -0 -0 -0 -0 -0 -0 -0 -0 -0 -0 -0 -0 -0 -0 -0 -0 -0 -0 -0 -0 -0 -0 -0 -0 -0 -0 -0 -0 -0 -0 -0 -0 -0 -0 -0 -0 -0 -0 -0 -0
-0 -0 -0 -0 -0 -0 -0 -0 -0 -0 -0 -0 -0 -0 -0 -0 -0 -0 -0 -0 -0 -0 -0 -0 -0 -0 -0 -0 -0 -0 -0 -0 -0 -0 -0 -0 -0 -0 -0 -0 -0 -0 -0
-0 -0 -0 -0 -0 -0 -0 -0 -0 -0 -0 -0 -0 -0 -0 -0 -0 -0 -0 -0 -0 -0 -0 -0 -0 -0 -0 -0 -0 -0 -0 -0 -0 -0 -0 -0 -0 -0 -0 -0 -0 -0 -0
-0 -0 -0 -0 -0 -0 -0 -0 -0 -0 -0 -0 -0 -0 -0 -0 -0 -0 -0 -0 -0 -0 -0 -0 -0 -0 -0 -0 -0 -0 -0 -0 -0 -0 -0 -0 -0 -0 -0 -0 -0 -0 -0
-0 -0 -0 -0 -0 -0 -0 -0 -0 -0 -0 -0 -0 -0 -0 -0 -0 -0 -0 -0 -0 -0 -0 -0 -0 -0 -0 -0 -0 -0 -0 -0 -0 -0 -0 -0 -0 -0 -0 -0 -0 -0 -0
-0 -0 -0 -0 -0 -0 -0 -0 -0 -0 -0 -0 -0 -0 -0 -0 -0 -0 -0 -0 -0 -0 -0 -0 -0 -0 -0 -0 -0 -0 -0 -0 -0 -0 -0 -0 -0 -0 -0 -0 -0 -0 -0
-0 -0 -0 -0 -0 -0 -0 -0 -0 -0 -0 -0 -0 -0 -0 -0 -0 -0 -0 -0 -0 -0 -0 -0 -0 -0 -0 -0 -0 -0 -0 -0 -0 -0 -0 -0 -0 -0 -0 -0 -0 -0 -0
-0 -0 -0 -0 -0 -0 -0 -0 -0 -0 -0 -0 -0 -0 -0 -0 -0 -0 -0 -0 -0 -0 -0 -0 -0 -0 -0 -0 -0 -0 -0 -0 -0 -0 -0 -0 -0 -0 -0 -0 -0 -0 -0
-0 -0 -0 -0 -0 -0 -0 -0 -0 -0 -0 -0 -0 -0 -0 -0 -0 -0 -0 -0 -0 -0 -0 -0 -0 -0 -0 -0 -0 -0 -0 -0 -0 -0 -0 -0 -0 -0 -0 -0 -0 -0 -0
-0 -0 -0 -0 -0 -0 -0 -0 -0 -0 -0 -0 -0 -0 -0 -0 -0 -0 -0 -0 -0 -0 -0 -0 -0 -0 -0 -0 -0 -0 -0 -0 -0 -0 -0 -0 -0 -0 -0 -0 -0 -0 -0
-0 -0 -0 -0 -0 -0 -0 -0 -0 -0 -0 -0 -0 -0 -0 -0 -0 -0 -0 -0 -0 -0 -0 -0 -0 -0 -0 -0 -0 -0 -0 -0 -0 -0 -0 -0 -0 -0 -0 -0 -0 -0 -0
-0 -0 -0 -0 -0 -0 -0 -0 -0 -0 -0 -0 -0 -0 -0 -0 -0 -0 -0 -0 -0 -0 -0 -0 -0 -0 -0 -0 -0 -0 -0 -0 -1 -0 -0 -1 -0 -0 -0 -0 -0 -0 -0
-0 -0 -0 -0 -0 -0 -0 -0 -0 -0 -0 -0 -0 -0 -0 -0 -0 -0 -0 -0 -0 -0 -0 -0 -0 -0 -0 -0 -0 -0 -0 -0 -0 -0 -0 -1 -0 -0 -0 -0 -0 -0 -0
-0 -0 -0 -0 -0 -0 -0 -0 -0 -0 -0 -0 -0 -0 -0 -0 -0 -0 -0 -0 -0 -0 -0 -0 -0 -0 -0 -0 -0 -0 -0 -0 -0 -0 -0 -0 -0 -0 -0 -0 -0 -0 -0
-0 -0 -0 -0 -0 -0 -0 -0 -0 -0 -0 -0 -0 -0 -0 -0 -0 -0 -0 -0 -0 -0 -0 -0 -0 -0 -0 -0 -0 -0 -0 -0 -0 -0 -0 -0 -0 -1 -0 -0 -0 -0 -0
Wind_Speed
6 6 5 5 5 5 5 5 5 6 7 6 6 6 6 7 8 5 6 19 18 20 20 19 18 18 21 22 23 23 24 24 24 25 26 26 25 26 22 10 9 8 10
5 6 5 6 6 4 4 5 5 5 5 5 8 8 7 7 8 8 6 10 20 20 18 16 16 20 21 21 22 21 23 23 22 23 24 24 25 26 28 24 10 4 5
6 6 6 6 4 4 6 5 6 6 6 6 9 9 8 8 9 9 7 6 7 18 18 16 17 18 19 20 19 22 22 21 21 22 22 23 23 25 25 26 25 21 9
7 7 5 4 4 5 5 6 5 5 5 6 7 7 6 7 8 8 7 6 5 6 11 17 18 18 19 19 18 20 21 21 22 21 22 23 23 23 23 24 25 26 25
7 6 5 4 5 5 5 4 7 5 5 5 8 7 6 7 6 7 10 10 10 8 5 14 18 18 18 18 18 19 20 20 20 21 21 22 22 22 22 22 23 25 26
6 6 5 5 5 5 5 5 6 6 4 4 9 8 6 5 6 7 7 7 8 8 7 7 6 9 18 18 18 19 19 19 19 20 20 21 21 21 21 22 21 23 24
5 6 5 5 5 6 5 5 3 6 7 4 3 5 6 6 7 5 5 6 8 7 7 6 5 4 6 18 18 18 19 19 18 19 19 20 19 20 20 21 21 20 21
5 6 6 5 5 5 6 5 4 2 3 4 3 2 2 2 4 5 5 5 7 5 7 8 7 7 5 4 12 17 20 19 18 18 18 19 18 18 18 19 19 20 19
5 5 6 5 5 5 4 4 4 4 3 4 6 4 2 3 0 1 4 4 6 5 5 5 6 6 6 5 8 10 19 19 18 18 18 18 17 17 17 18 18 18 19
5 5 6 6 6 4 5 3 3 3 3 2 2 4 5 2 3 2 2 3 4 6 5 4 5 6 6 5 12 17 18 19 18 18 17 17 17 16 16 17 16 17 17
5 6 6 5 6 4 3 4 4 5 3 3 2 1 3 4 4 3 1 4 4 3 3 3 4 4 5 5 4 10 18 19 18 18 18 17 16 16 16 16 17 17 17
3 4 5 5 4 5 4 4 4 5 4 4 3 3 2 2 1 3 2 1 2 3 1 2 4 4 4 4 11 16 18 18 17 17 17 17 17 17 17 17 17 17 17
3 5 5 5 3 4 4 5 5 5 3 3 3 2 2 2 2 2 2 0 1 2 3 1 3 3 5 4 7 16 18 18 17 17 16 17 19 18 17 17 18 18 17
5 6 6 6 6 5 4 5 3 3 4 3 4 3 2 2 1 2 2 1 2 2 2 2 2 3 4 4 11 16 9 17 16 16 16 18 18 18 19 19 18 18 17
5 6 6 7 6 6 6 6 4 4 4 3 4 3 2 1 2 2 2 2 2 2 3 2 2 3 4 4 8 5 7 15 16 15 14 18 19 19 19 19 19 20 19
6 6 6 6 6 6 6 6 4 4 5 2 2 3 2 2 3 2 2 2 2 3 3 2 3 3 4 5 9 7 7 15 15 15 15 18 20 19 19 20 19 19 20
8 9 7 6 7 6 6 5 5 6 5 4 3 3 3 3 3 2 2 2 2 2 3 3 2 2 3 5 6 5 7 6 6 14 15 18 19 18 18 18 19 20 21
9 9 8 7 7 7 6 7 7 6 6 5 4 3 3 2 3 3 3 5 3 3 3 4 2 2 3 4 5 7 7 7 5 11 18 19 18 16 16 18 20 20 21
11 9 10 9 8 7 7 6 7 7 6 6 5 4 4 3 3 3 4 3 2 1 2 2 3 2 3 2 6 5 6 7 6 15 17 19 17 16 16 17 19 21 21
11 9 8 7 7 7 6 6 6 6 6 5 5 4 4 4 5 4 4 4 3 2 1 2 3 4 2 4 3 6 7 7 7 8 13 14 16 17 17 18 19 19 20
10 9 9 7 6 7 6 7 7 7 6 5 4 4 4 5 7 7 4 4 4 2 1 2 3 3 3 3 5 4 6 8 8 6 6 6 6 6 7 11 16 19 21
10 11 9 9 8 6 11 14 11 7 7 6 5 4 3 4 7 8 9 9 6 4 2 2 2 3 4 4 2 5 6 7 7 2 6 11 7 7 6 6 20 23 23
11 10 8 9 9 8 13 16 15 6 6 6 6 5 3 4 5 4 5 6 4 3 5 3 4 4 3 3 4 7 6 6 7 9 8 11 2 8 8 11 22 23 26
11 9 10 9 8 7 13 15 16 7 5 6 6 6 5 6 5 6 5 4 4 4 4 5 5 6 5 6 4 5 6 7 6 7 8 7 8 10 7 10 23 25 27
8 7 6 8 7 6 14 15 13 7 5 6 6 6 6 6 7 12 6 5 4 4 6 9 10 11 12 12 9 2 4 3 6 7 6 5 3 10 10 10 11 21 23
9 7 7 9 11 9 15 18 15 6 6 5 5 5 11 7 9 9 5 5 4 4 4 5 4 7 9 8 10 4 3 5 6 5 3 5 8 8 5 5 5 9 10
Wind_Direction
71 63 50 51 42 30 36 41 39 34 33 32 45 70 67 56 49 49 47 65 60 62 57 52 54 64 68 60 50 43 39 34 35 34 33 31 30 26 11 352 343 260 206
68 71 59 47 39 29 34 49 48 37 33 25 57 66 71 57 55 54 48 55 59 58 57 56 55 57 63 56 50 43 36 34 35 34 35 32 29 27 23 23 13 0 16
77 71 60 46 28 23 41 41 37 43 34 42 61 67 68 61 61 54 49 45 41 52 53 55 57 54 51 52 43 39 33 29 34 33 31 32 30 29 27 24 25 31 25
78 70 68 54 36 44 43 42 26 36 44 58 68 55 47 51 55 53 50 41 39 38 37 62 66 58 52 48 40 34 30 31 30 32 34 32 28 25 24 23 22 30 25
73 81 70 56 49 56 48 40 40 45 45 62 76 67 55 59 50 55 51 44 39 35 26 52 66 61 54 48 41 34 29 29 29 32 29 28 28 26 26 27 23 26 26
77 84 68 57 51 58 48 46 57 45 53 53 82 64 47 42 52 51 45 41 38 32 29 38 30 46 53 48 38 30 29 27 24 27 28 25 25 26 26 26 32 28 25
86 92 82 68 48 58 59 45 63 56 33 5 84 52 45 39 48 36 40 43 32 29 37 30 42 45 35 43 32 31 26 21 21 23 25 21 23 22 24 26 26 33 30
101 93 94 81 63 60 50 54 55 89 74 13 123 97 146 341 41 30 28 44 34 25 32 39 39 41 33 25 31 36 22 16 15 17 20 18 19 19 20 22 24 24 27
99 105 96 93 85 79 61 57 62 76 121 28 48 138 119 198 333 2 36 36 41 32 25 27 34 34 28 21 23 29 19 14 11 8 10 10 13 15 14 17 17 18 17
122 113 100 99 94 91 86 65 61 78 97 70 23 44 56 125 139 351 354 20 37 38 25 21 30 33 18 16 32 16 19 9 0 359 0 3 6 7 9 9 8 9 11
143 113 114 111 103 99 104 104 76 64 55 86 64 67 58 59 57 102 320 333 5 18 17 29 28 29 23 13 3 14 11 5 1 358 359 359 0 3 1 2 2 2 3
122 136 135 118 114 116 122 116 93 89 92 83 66 58 90 103 55 88 84 316 301 299 322 33 34 23 37 14 8 10 3 356 355 355 355 356 355 355 354 354 353 353 353
185 180 144 142 137 131 125 133 119 116 117 104 111 79 74 79 94 83 90 302 316 309 326 347 37 24 19 7 360 1 353 349 347 349 353 354 350 348 348 348 349 348 348
175 170 163 154 146 140 133 138 119 118 115 109 118 104 107 105 92 120 131 67 335 318 315 290 314 23 7 346 351 358 340 338 339 345 345 349 348 345 343 342 343 344 344
165 180 164 153 159 152 148 144 138 136 129 134 143 142 138 151 121 118 111 142 157 307 295 305 323 342 340 334 337 358 331 322 336 338 345 344 342 339 337 339 337 338 338
167 165 171 161 166 165 155 143 142 149 140 139 145 151 158 162 150 135 138 150 151 171 254 246 276 285 319 325 332 340 320 333 325 332 338 337 336 333 335 335 335 332 331
172 166 179 171 171 172 169 151 154 152 147 142 132 172 193 179 182 180 159 163 182 186 238 281 256 295 304 315 320 314 317 307 311 327 331 330 326 325 327 330 331 330 326
179 179 164 180 174 177 172 164 166 157 157 160 161 157 202 199 214 214 193 204 207 220 215 277 283 288 271 302 299 308 315 318 318 319 324 321 319 317 315 324 326 325 323
174 182 174 173 175 177 177 180 166 166 168 171 172 187 217 210 236 223 212 203 217 218 220 240 286 288 282 300 319 310 313 306 320 317 318 311 313 310 307 314 320 320 319
171 176 185 175 174 176 181 174 165 165 170 176 185 204 218 222 232 221 192 208 185 179 228 262 277 284 284 314 303 324 329 321 308 314 306 301 304 304 308 310 312 312 314
173 184 174 172 176 174 186 176 169 170 173 187 202 218 215 247 225 196 154 169 162 167 235 264 259 275 286 314 323 317 310 311 309 287 293 298 303 297 292 300 305 308 309
180 182 180 173 180 189 186 182 170 173 180 185 203 206 218 238 151 140 146 161 164 170 216 226 236 261 282 279 285 298 303 316 324 295 332 309 303 298 301 291 299 303 306
174 184 183 180 186 193 192 185 182 176 176 181 188 196 221 175 175 176 172 165 177 210 208 225 230 245 261 262 279 292 290 278 286 295 295 292 302 299 302 297 301 299 301
183 184 193 191 184 197 194 185 177 168 185 192 188 193 190 182 202 195 193 201 214 225 245 245 227 250 258 270 261 292 302 296 293 297 295 287 308 293 296 294 296 296 296
182 182 183 189 187 200 192 186 169 163 194 209 193 185 184 193 219 212 191 221 229 235 264 269 260 267 285 292 297 324 300 297 299 296 288 283 285 302 292 283 283 290 298
189 176 185 191 193 197 188 187 176 168 189 205 202 197 204 197 215 208 200 209 229 253 258 266 272 281 285 276 287 254 251 280 293 300 273 312 302 316 289 247 292 298 284